Weather History for KCDD - January, 2013

Change the Weather History Date:

Saturday, January 5, 2013

  Actual Average Record
Temperature  
Mean Temperature 4 °F -  
Max Temperature 17 °F 15 °F 42 °F (2012)
Min Temperature -9 °F 0 °F -38 °F (2014)
Degree Days  
Heating Degree Days 61    
Moisture  
Dew Point 5 °F    
Average Humidity 91    
Maximum Humidity 100    
Minimum Humidity 84    
Precipitation  
Precipitation 0.00 in - - ()
Sea Level Pressure  
Sea Level Pressure 29.99 in    
Wind  
Wind Speed 0 mph (NNW)    
Max Wind Speed 5 mph    
Max Gust Speed -    
Visibility 10 miles    
Events      
Averages and records for this station are not official NWS values.
T = Trace of Precipitation, MM = Missing Value Source: NWS Daily Summary

Daily Weather History Graph

Daily Weather History Graph

Search for Another Location

Airport or City:

Trip Planner

Search our weather history database for the weather conditions in past years. The results will help you decide how hot, cold, wet, or windy it might be!

Date:

Astronomy

Jan. 05, 2013 Rise Set
Actual Time 8:00 AM CST 4:30 PM CST
Civil Twilight 7:24 AM CST 5:07 PM CST
Nautical Twilight 6:44 AM CST 5:46 PM CST
Astronomical Twilight 6:06 AM CST 6:24 PM CST
Moon 12:50 AM CST (1/5) 11:35 AM CST (1/5)
Length of Visible Light 9h 42m
Length of Day
8h 30m
Last Quarter, 44% of the Moon is Illuminated
Jan 5
Last Quarter
Jan 11
New
Jan 18
First Quarter
Jan 26
Full
Feb 3
Last Quarter

Hourly Weather History & Observations

Time (CST) Temp. Windchill Dew Point Humidity Pressure Visibility Wind Dir Wind Speed Gust Speed Precip Events Conditions
12:02 AM -4.0 °F - -7.6 °F 85% 30.07 in 10.0 mi Calm Calm - N/A   Clear
12:22 AM -5.8 °F - -7.6 °F 92% 30.07 in 10.0 mi Calm Calm - N/A   Clear
12:42 AM -4.0 °F - -7.6 °F 85% 30.07 in 10.0 mi Calm Calm - N/A   Clear
1:02 AM -5.8 °F - -7.6 °F 92% 30.07 in 10.0 mi Calm Calm - N/A   Clear
1:22 AM -5.8 °F - -9.4 °F 84% 30.08 in 10.0 mi Calm Calm - N/A   Clear
1:41 AM -5.8 °F - -9.4 °F 84% 30.07 in 10.0 mi Calm Calm - N/A   Clear
2:02 AM -5.8 °F - -9.4 °F 84% 30.08 in 10.0 mi Calm Calm - N/A   Clear
2:21 AM -5.8 °F - -9.4 °F 84% 30.07 in 10.0 mi Calm Calm - N/A   Clear
2:42 AM -5.8 °F - -9.4 °F 84% 30.07 in 10.0 mi Calm Calm - N/A   Clear
3:01 AM -7.6 °F - -9.4 °F 92% 30.07 in 10.0 mi Calm Calm - N/A   Clear
3:21 AM -7.6 °F - -9.4 °F 92% 30.07 in 10.0 mi Calm Calm - N/A   Clear
3:41 AM -7.6 °F - -9.4 °F 92% 30.06 in 10.0 mi Calm Calm - N/A   Clear
4:01 AM -7.6 °F - -9.4 °F 92% 30.06 in 10.0 mi Calm Calm - N/A   Clear
4:21 AM -7.6 °F - -9.4 °F 92% 30.04 in 10.0 mi Calm Calm - N/A   Clear
4:41 AM -7.6 °F - -11.2 °F 84% 30.03 in 10.0 mi Calm Calm - N/A   Clear
5:02 AM -7.6 °F - -11.2 °F 84% 30.03 in 10.0 mi Calm Calm - N/A   Clear
5:21 AM -7.6 °F - -11.2 °F 84% 30.03 in 10.0 mi Calm Calm - N/A   Clear
5:41 AM -9.4 °F - -11.2 °F 92% 30.03 in 10.0 mi Calm Calm - N/A   Clear
6:21 AM -9.4 °F - -11.2 °F 92% 30.02 in 10.0 mi Calm Calm - N/A   Scattered Clouds
6:41 AM -9.4 °F - -11.2 °F 92% 30.01 in 10.0 mi Calm Calm - N/A   Scattered Clouds
7:01 AM -9.4 °F - -13.0 °F 84% 30.01 in 10.0 mi Calm Calm - N/A   Clear
7:21 AM -9.4 °F - -13.0 °F 84% 30.00 in 10.0 mi Calm Calm - N/A   Clear
7:42 AM -9.4 °F - -13.0 °F 84% 30.01 in 10.0 mi Calm Calm - N/A   Clear
8:01 AM -9.4 °F - -13.0 °F 84% 30.00 in 10.0 mi Calm Calm - N/A   Clear
8:22 AM -9.4 °F - -13.0 °F 84% 30.00 in 10.0 mi Calm Calm - N/A   Clear
8:41 AM -7.6 °F - -11.2 °F 84% 30.00 in 10.0 mi Calm Calm - N/A   Clear
9:01 AM -5.8 °F - -9.4 °F 84% 30.00 in 10.0 mi Calm Calm - N/A   Clear
9:41 AM -0.4 °F - -4.0 °F 85% 30.00 in 10.0 mi Calm Calm - N/A   Clear
10:02 AM 6.8 °F - 3.2 °F 85% 30.00 in 10.0 mi Calm Calm - N/A   Clear
11:21 AM 12.2 °F - 10.4 °F 92% 29.97 in 10.0 mi Calm Calm - N/A   Overcast
11:41 AM 12.2 °F - 10.4 °F 92% 29.97 in 10.0 mi Calm Calm - N/A   Overcast
12:01 PM 15.8 °F - 12.2 °F 86% 29.96 in 10.0 mi Calm Calm - N/A   Overcast
12:22 PM 17.6 °F 12.3 °F 15.8 °F 93% 29.95 in 10.0 mi South 3.5 mph - N/A   Overcast
12:41 PM 17.6 °F - 15.8 °F 93% 29.94 in 7.0 mi Calm Calm - N/A   Overcast
1:01 PM 17.6 °F - 15.8 °F 93% 29.93 in 10.0 mi Calm Calm - N/A   Overcast
1:21 PM 17.6 °F - 15.8 °F 93% 29.93 in 10.0 mi Calm Calm - N/A   Overcast
1:41 PM 17.6 °F - 15.8 °F 93% 29.92 in 10.0 mi Calm Calm - N/A   Overcast
2:02 PM 17.6 °F 12.3 °F 15.8 °F 93% 29.91 in 10.0 mi NE 3.5 mph - N/A   Overcast
2:21 PM 17.6 °F - 15.8 °F 93% 29.92 in 10.0 mi Calm Calm - N/A   Overcast
2:42 PM 17.6 °F - 15.8 °F 93% 29.91 in 10.0 mi Calm Calm - N/A   Overcast
3:01 PM 17.6 °F 12.3 °F 15.8 °F 93% 29.91 in 10.0 mi NNW 3.5 mph - N/A   Overcast
3:22 PM 17.6 °F - 17.6 °F 100% 29.91 in 10.0 mi Calm Calm - N/A   Overcast
3:41 PM 17.6 °F - 17.6 °F 100% 29.91 in 10.0 mi Calm Calm - N/A   Overcast
4:02 PM 17.6 °F - 17.6 °F 100% 29.93 in 10.0 mi Calm Calm - N/A   Overcast
4:21 PM 17.6 °F 12.3 °F 15.8 °F 93% 29.93 in 10.0 mi NW 3.5 mph - N/A   Overcast
4:41 PM 17.6 °F - 15.8 °F 93% 29.93 in 10.0 mi Calm Calm - N/A   Overcast
5:02 PM 17.6 °F - 15.8 °F 93% 29.94 in 10.0 mi Calm Calm - N/A   Overcast
5:22 PM 17.6 °F 12.3 °F 15.8 °F 93% 29.94 in 10.0 mi NW 3.5 mph - N/A   Overcast
5:41 PM 17.6 °F - 15.8 °F 93% 29.94 in 10.0 mi Calm Calm - N/A   Overcast
6:01 PM 17.6 °F - 15.8 °F 93% 29.94 in 10.0 mi Calm Calm - N/A   Overcast
6:22 PM 17.6 °F - 15.8 °F 93% 29.94 in 10.0 mi Calm Calm - N/A   Overcast
6:41 PM 17.6 °F - 17.6 °F 100% 29.95 in 10.0 mi Calm Calm - N/A   Overcast
7:01 PM 17.6 °F - 17.6 °F 100% 29.95 in 10.0 mi Calm Calm - N/A   Overcast
7:41 PM 17.6 °F - 17.6 °F 100% 29.95 in 10.0 mi Calm Calm - N/A   Overcast
8:01 PM 17.6 °F - 17.6 °F 100% 29.96 in 10.0 mi Calm Calm - N/A   Overcast
8:21 PM 17.6 °F 10.7 °F 17.6 °F 100% 29.96 in 10.0 mi NW 4.6 mph - N/A   Overcast
8:41 PM 17.6 °F - 15.8 °F 93% 29.97 in 10.0 mi Calm Calm - N/A   Overcast
9:01 PM 17.6 °F - 15.8 °F 93% 29.97 in 10.0 mi Calm Calm - N/A   Overcast
9:21 PM 17.6 °F - 17.6 °F 100% 29.97 in 10.0 mi Calm Calm - N/A   Overcast
9:41 PM 17.6 °F - 17.6 °F 100% 29.97 in 10.0 mi Calm Calm - N/A   Overcast
10:01 PM 17.6 °F 12.3 °F 17.6 °F 100% 29.97 in 10.0 mi NW 3.5 mph - N/A   Overcast
10:21 PM 17.6 °F - 15.8 °F 93% 29.97 in 10.0 mi Calm Calm - N/A   Overcast
10:41 PM 17.6 °F - 15.8 °F 93% 29.98 in 10.0 mi Calm Calm - N/A   Overcast
11:01 PM 17.6 °F - 15.8 °F 93% 29.98 in 10.0 mi Calm Calm - N/A   Overcast
11:21 PM 17.6 °F - 15.8 °F 93% 29.98 in 10.0 mi Calm Calm - N/A   Overcast
11:41 PM 17.6 °F - 15.8 °F 93% 29.98 in 10.0 mi Calm Calm - N/A   Overcast